SL-12 R/B(2), 22213

Orbit data source: Space-Track

SL-12 R/B(2), 22213 is space debris in GEO originally from a launch on Fri, 30 Oct 1992 UTC launched from the Tyuratam Missile And Space Complex (TTMTR). Debris objects in space refer to the collection of defunct objects orbiting the Earth. Examples of debris include non-operational satellites, rocket bodies, and fragments generated from explosions, collisions, or faulty payload assembly.

Loading next visibility...
Identifier
22213, 1992-074D
Orbit
GEO
Country
Flag of CISCIS
Related business
Manufacturer
NPO Energiya
Mission
Spacecraft
Bus & Motor
BLOK DM, Unknown motor
Mass
2,440 kg wet, 2,440 kg dry
Launch date (UTC)
1992-10-30 (33 years ago)
Launch vehicle
Unknown
Launch site
Tyuratam Missile And Space Complex (TTMTR)
Object type
Payload
Rocket body
Debris
Shape & HBR
Cyl, 3.1 m
Radar Cross Section
23.597 m², Large (>1 m²)

Expand to show TLE details & history
Last TLE update: 16 hours ago

TLE from 16 hours ago
0 SL-12 R/B(2)
1 22213U 92074D   25349.53754068 -.00000220  00000-0  00000-0 0  9998
2 22213  13.3853 344.1588 0020086 150.4839  41.2162  1.01145515123919
Epoch: 2025-12-15T12:54Z
TLE epoch observation values (Epoch: 2025-12-15T12:54:03.514Z)
Latitude
-2.73551°
Longitude
-102.25474°
Altitude
35,480.48 km
Speed
3.088 km/s
True Right ascension
11h 42m 46s
True Declination
-2° 43' 58"
Sunlit
Object was in daylight at epoch
Visualization orbit readout
Latitude
Unknown
Longitude
Unknown
Altitude
Unknown
Speed
Unknown
Apparent Right ascension
Unknown
Apparent Declination
Unknown
Sunlit
N/A
Visualization observer readout
Local Sidereal Time
03:22:46
Azimuth
Unknown
Elevation
Unknown
Doppler factor
Unknown
Orbital elements
Apogee altitude
35,628.619 km
Perigee altitude
35,460.208 km
Semi-major axis
41,922.55 km
Eccentricity
0.00201
Inclination
13.3853°
RAAN
344.1588°
Arg. of periapsis
150.4839°
True anomaly
41.36815°
Mean anomaly
41.2162°
Eccentric anomaly
41.29214°
Mean motion
0.25286 °/min
Orbital period
1,423.74 mins
BSTAR
0
Loading maneuver chart data...
Computing Atmospheric mass density...
Loading historical data...
Loading historical data...
Loading historical data...
Loading historical data...
Loading historical data...
Loading historical data...
Loading historical data...

Documentation

Showing up to 5 results
|